Content
SEND FEEDBACK

Daily
Averages
Monthly
Summary
United States of America

BROUSSARD, LOUISIANA


Home > North America > United States > Louisiana
Elevation: 4 feet     Latitude: 30 12N     Longitude: 091 59W

WEATHER
 
SELECT A DAY
Number of Records: 209,106;   Date Range: 1/1/95 - 7/26/14
 
SHARE

PRINT THIS DATA

[ ← Previous Day ]
WEATHER ALMANAC - FEBRUARY 13, 2013
[ Next Day → ]
[ °C ]   °F
Weather ElementAverageHighLow
Temperature51.9 °F59 °F (2:53 pm)44.1 °F (11:53 pm)
Dewpoint42.2 °F51.1 °F (1:53 am)39 °F (4:53 pm)
Humidity70.3 %86 % (1:53 am)51 % (3:53 pm)
Barometer30.02 in30.09 in (9:53 pm)29.94 in (2:53 am)
Wind Speed9.6 mph15 mph (5:53 am)
Wind Gust21.9 mph (8:50 am)
Weather ElementAverage
Visibility10 mi
Wind DirectionWSW (245.9 °)

Weather ElementTotal
Precipitation0.01 in
Heating Degree Days13.5 (Base 65)
Growing Degree Days1.6 (Base 50)
Averaged from 29 records on February 13, 2013
WEATHER CONDITIONS BREAKOUT
WIND DIRECTION BREAKOUT
WEATHER BY HOUR - FEBRUARY 13, 2013
[ °C ]   °F
Local TimeTemperatureDewpointHumidityBarometerVisibilityWind DirectionWind SpeedGust SpeedPrecipitationEventsConditions
1:53 AM55.0 °F51.1 °F86 %29.96 in10.0 miWNW (290°)6.9 mphClear
2:53 AM55.0 °F50.0 °F83 %29.94 in10.0 miWNW (300°)6.9 mphScattered Clouds
3:53 AM54.0 °F50.0 °F86 %29.95 in10.0 miNW (310°)11.5 mphClear
4:53 AM54.0 °F48.0 °F80 %29.96 in10.0 miWNW (300°)11.5 mphClear
5:53 AM53.6 °F44.6 °F72 %29.94 in10.0 miNW (320°)15.0 mphScattered Clouds
6:53 AM52.0 °F45.0 °F77 %30.02 in10.0 miNW (310°)15.0 mphOvercast
7:53 AM50.0 °F44.1 °F80 %30.04 in10.0 miNW (310°)12.7 mph0.01 inRainLight Rain
8:02 AM50.0 °F44.6 °F82 %30.02 in10.0 miNW (310°)15.0 mph20.7 mph0.00 inOvercast
8:50 AM48.2 °F42.8 °F82 %30.03 in10.0 miNorth (360°)15.0 mph21.9 mph0.00 inOvercast
8:53 AM48.9 °F42.1 °F77 %30.03 in10.0 miNorth (350°)12.7 mph21.9 mph0.00 inOvercast
9:53 AM48.9 °F39.9 °F71 %30.03 in10.0 miNorth (360°)11.5 mph0.00 inOvercast
10:53 AM50.0 °F39.9 °F68 %30.04 in10.0 miNNW (340°)11.5 mphMostly Cloudy
11:24 AM51.8 °F41.0 °F67 %30.05 in10.0 miNorth (350°)13.8 mphMostly Cloudy
11:53 AM52.0 °F41.0 °F66 %30.04 in10.0 miNorth (350°)11.5 mphMostly Cloudy
12:01 PM51.8 °F39.2 °F62 %30.04 in10.0 miNorth (360°)11.5 mphScattered Clouds
12:53 PM53.1 °F39.9 °F61 %30.04 in10.0 miVariable3.5 mphScattered Clouds
1:01 PM53.6 °F41.0 °F62 %30.03 in10.0 miNorth (360°)5.8 mphMostly Cloudy
1:53 PM55.9 °F41.0 °F57 %30.01 in10.0 miNNW (330°)8.1 mphMostly Cloudy
2:00 PM55.4 °F41.0 °F58 %30.01 in10.0 miNorth (10°)9.2 mphOvercast
2:53 PM59.0 °F42.1 °F53 %30.00 in10.0 miNorth (350°)13.8 mph18.4 mphMostly Cloudy
3:53 PM57.9 °F39.9 °F51 %30.00 in10.0 miNNW (330°)11.5 mphClear
4:53 PM57.0 °F39.0 °F51 %30.01 in10.0 miNNW (330°)10.4 mphClear
5:53 PM54.0 °F39.9 °F59 %30.02 in10.0 miNorth (350°)6.9 mphClear
6:53 PM52.0 °F41.0 °F66 %30.04 in10.0 miNNE (20°)6.9 mphMostly Cloudy
7:53 PM48.9 °F39.9 °F71 %30.06 in10.0 miNNE (20°)5.8 mphClear
8:53 PM46.0 °F39.0 °F76 %30.08 in10.0 miNNE (20°)6.9 mphClear
9:53 PM46.0 °F39.0 °F76 %30.09 in10.0 miNE (50°)3.5 mphClear
10:53 PM46.0 °F39.0 °F76 %30.09 in10.0 miNE (40°)3.5 mphClear
11:53 PM44.1 °F39.0 °F82 %30.08 in10.0 miCalmClear
Hourly data recorded from KLFT, located miles away from Broussard, Louisiana







STORIES FROM OUR PARTNERS